Marco Island Airport, FL

4:44 AM EDT on June 20, 2018 (GMT -0400)
Marco Island

Weather History for KMKY - November, 2017

Change the Weather History Date:

Wednesday, November 15, 2017

  Actual Average (KAPF) Record (KAPF)
Temperature  
Mean Temperature 72 °F -  
Max Temperature 81 °F 82 °F 91 °F (1993)
Min Temperature 64 °F 59 °F 40 °F (1975)
Cooling Degree Days 8    
Growing Degree Days 22 (Base 50)    
Moisture  
Dew Point 64 °F    
Average Humidity 76    
Maximum Humidity 90    
Minimum Humidity 58    
Precipitation  
Precipitation 0.00 in - - ()
Sea Level Pressure  
Sea Level Pressure 29.94 in    
Wind  
Wind Speed 11 mph (NNE)    
Max Wind Speed 16 mph    
Max Gust Speed 23 mph    
Visibility 10 miles    
Events      
Averages and records for this station are not official NWS values.
T = Trace of Precipitation, MM = Missing Value Source: NWS Daily Summary

Daily Weather History Graph

Daily Weather History Graph

Search for Another Location

Airport or City:

Astronomy

Nov. 15, 2017 Rise Set
Actual Time 6:45 AM EST 5:37 PM EST
Civil Twilight 6:20 AM EST 6:01 PM EST
Nautical Twilight 5:52 AM EST 6:29 PM EST
Astronomical Twilight 5:25 AM EST 6:56 PM EST
Moon 4:06 AM EST (11/15) 4:12 PM EST (11/15)
Length of Visible Light 11h 40m
Length of Day
10h 52m
Waning Crescent, 7% of the Moon is Illuminated
Nov 15
Waning Crescent
Nov 18
New
Nov 26
First Quarter
Dec 3
Full
Dec 10
Last Quarter

Hourly Weather History & Observations

Time (EST) Temp. Heat Index Dew Point Humidity Pressure Visibility Wind Dir Wind Speed Gust Speed Precip Events Conditions
12:56 AM 68.0 °F - 64.0 °F 87% 29.95 in 10.0 mi NNE 10.4 mph - N/A   Clear
1:56 AM 66.9 °F - 63.0 °F 87% 29.94 in 10.0 mi NNE 9.2 mph - N/A   Clear
2:56 AM 66.0 °F - 63.0 °F 90% 29.93 in 10.0 mi North 10.4 mph - N/A   Clear
3:56 AM 64.9 °F - 62.1 °F 90% 29.91 in 10.0 mi North 9.2 mph - N/A   Clear
4:56 AM 64.9 °F - 62.1 °F 90% 29.92 in 10.0 mi NNE 9.2 mph - N/A   Clear
5:56 AM 64.9 °F - 61.0 °F 87% 29.94 in 10.0 mi North 10.4 mph - N/A   Clear
6:56 AM 66.0 °F - 61.0 °F 84% 29.95 in 10.0 mi North 10.4 mph - N/A   Clear
7:56 AM 66.9 °F - 61.0 °F 81% 29.97 in 10.0 mi North 11.5 mph - N/A   Overcast
8:56 AM 70.0 °F - 62.1 °F 76% 29.98 in 10.0 mi North 15.0 mph - N/A   Overcast
9:56 AM 72.0 °F - 63.0 °F 73% 29.98 in 10.0 mi North 11.5 mph 19.6 mph N/A   Overcast
10:56 AM 75.0 °F - 64.0 °F 69% 29.97 in 10.0 mi NNE 10.4 mph - N/A   Overcast
11:56 AM 78.1 °F - 64.9 °F 64% 29.95 in 10.0 mi North 11.5 mph - N/A   Clear
12:56 PM 79.0 °F - 64.9 °F 62% 29.92 in 10.0 mi NNE 15.0 mph 20.7 mph N/A   Scattered Clouds
1:56 PM 80.1 °F 82.1 °F 66.0 °F 62% 29.91 in 10.0 mi NNE 15.0 mph - N/A   Mostly Cloudy
2:56 PM 81.0 °F 82.7 °F 64.9 °F 58% 29.90 in 10.0 mi North 16.1 mph 23.0 mph N/A   Scattered Clouds
3:56 PM 80.1 °F 81.7 °F 64.0 °F 58% 29.90 in 10.0 mi NNE 10.4 mph - N/A   Partly Cloudy
4:56 PM 79.0 °F - 64.9 °F 62% 29.91 in 10.0 mi North 10.4 mph - N/A   Scattered Clouds
5:56 PM 77.0 °F - 66.0 °F 69% 29.93 in 10.0 mi North 6.9 mph - N/A   Mostly Cloudy
6:56 PM 75.9 °F - 66.0 °F 71% 29.94 in 10.0 mi North 5.8 mph - N/A   Clear
7:56 PM 73.9 °F - 66.0 °F 76% 29.96 in 10.0 mi NNE 10.4 mph - N/A   Mostly Cloudy
8:56 PM 73.0 °F - 64.9 °F 76% 29.97 in 10.0 mi NNE 10.4 mph - N/A   Partly Cloudy
9:56 PM 71.1 °F - 64.9 °F 81% 29.97 in 10.0 mi NE 8.1 mph - N/A   Clear
10:56 PM 70.0 °F - 64.9 °F 84% 29.98 in 10.0 mi North 8.1 mph - N/A   Clear
11:56 PM 69.1 °F - 64.9 °F 87% 29.97 in 10.0 mi NNE 9.2 mph - N/A   Clear